シューメーカー-リニア彗星

146P/Shoemaker-LINEAR (2024)

English version
Home page
Updated on March 24, 2025

---------------------------------------------------------------------

・ プロフィール

・ 写真集

・ 軌道要素

Epoch 2024 Mar. 31.0 TT = JDT 2460400.5
T 2024 Aug. 5.43677 TT                                  Rudenko
q   1.4195918            (2000.0)            P               Q
n   0.12199920     Peri.  317.07359     +0.93950532     -0.13415073
a   4.0262251      Node    53.37546     +0.30273087     +0.75568840
e   0.6474137      Incl.   23.12306     -0.16026158     +0.64104495
P   8.08
>From 156 observations 2016 Apr. 19-2024 June 19, mean residual 0".6.
     Nongravitational parameters A1 = -0.56, A2 = -0.0608.

・ 星図

・ 光度変化

        m1 =  9.5 + 5 logΔ + 30   log r(t + 15)  [  ,75]  (              〜2024年10月19日)
        m1 = 13.5 + 5 logΔ + 15.0 log r          [75,  ]  (2024年10月19日〜              )

---------------------------------------------------------------------

軌道要素はM.P.E.C. 2024-M41に掲載されたものです。
星図はステラナビゲータ Ver.11 (アストロアーツ) で作成したものです。
光度グラフはComet for Windowsで作成したものです。

---------------------------------------------------------------------

Copyright(C) Seiichi Yoshida (comet@aerith.net). All rights reserved.